TimeEDT,TemperatureF,Dew PointF,Humidity,Sea Level PressureIn,VisibilityMPH,Wind Direction,Wind SpeedMPH,Gust SpeedMPH,PrecipitationIn,Events,Conditions,WindDirDegrees,DateUTC
12:51 AM,62.6,55.4,77,29.95,10.0,South,6.9,-,0.00,,Overcast,190,2013-10-16 04:51:00
1:51 AM,60.8,55.4,82,29.94,7.0,SSW,9.2,-,0.05,Rain,Light Rain,200,2013-10-16 05:51:00
2:51 AM,60.8,59.0,94,29.94,10.0,SSW,9.2,-,0.03,Rain,Light Rain,200,2013-10-16 06:51:00
3:51 AM,60.8,59.0,94,29.92,10.0,SSW,9.2,-,0.07,,Overcast,200,2013-10-16 07:51:00
4:51 AM,60.8,59.0,94,29.91,10.0,SSW,9.2,-,N/A,,Overcast,200,2013-10-16 08:51:00
5:51 AM,60.8,59.0,94,29.91,10.0,SSW,5.8,-,0.00,Rain,Light Rain,200,2013-10-16 09:51:00
6:51 AM,60.8,59.0,94,29.91,8.0,South,5.8,-,0.03,,Overcast,190,2013-10-16 10:51:00
7:29 AM,60.8,60.8,100,29.91,5.0,South,5.8,-,N/A,Rain,Light Rain,170,2013-10-16 11:29:00
7:51 AM,60.8,59.0,94,29.91,6.0,South,9.2,-,0.00,,Overcast,180,2013-10-16 11:51:00
8:13 AM,60.8,59.0,94,29.92,6.0,South,11.5,-,N/A,,Overcast,180,2013-10-16 12:13:00
8:51 AM,60.8,59.0,94,29.91,5.0,South,11.5,-,0.00,Rain,Light Rain,170,2013-10-16 12:51:00
9:51 AM,60.8,59.0,94,29.91,2.0,South,12.7,-,0.08,Rain,Light Rain,180,2013-10-16 13:51:00
10:24 AM,60.8,59.0,94,29.92,5.0,South,11.5,-,0.08,Rain,Light Rain,190,2013-10-16 14:24:00
10:51 AM,62.6,60.8,94,29.91,7.0,SSW,11.5,-,0.01,,Overcast,200,2013-10-16 14:51:00
11:51 AM,62.6,60.8,94,29.89,8.0,SSW,13.8,-,0.00,,Overcast,210,2013-10-16 15:51:00
12:18 PM,64.4,60.8,88,29.91,2.0,SSW,11.5,-,N/A,Rain,Light Rain,210,2013-10-16 16:18:00
12:36 PM,64.4,60.8,88,29.90,1.0,SW,12.7,-,N/A,Rain,Light Rain,220,2013-10-16 16:36:00
12:51 PM,64.4,60.8,88,29.88,2.0,SSW,12.7,-,0.00,,Overcast,210,2013-10-16 16:51:00
1:25 PM,64.4,60.8,88,29.88,6.0,SSW,13.8,-,N/A,,Overcast,210,2013-10-16 17:25:00
1:51 PM,64.4,60.8,88,29.86,7.0,SSW,11.5,-,0.00,Rain,Light Rain,210,2013-10-16 17:51:00
2:51 PM,64.4,60.8,88,29.85,5.0,SW,15.0,-,0.00,,Overcast,220,2013-10-16 18:51:00
3:51 PM,64.4,62.6,94,29.83,4.0,SSW,15.0,-,0.01,,Overcast,210,2013-10-16 19:51:00
4:51 PM,62.6,60.8,94,29.83,4.0,SW,17.3,-,0.00,Rain,Light Rain,220,2013-10-16 20:51:00
5:04 PM,62.6,60.8,94,29.83,0.5,SW,17.3,-,0.02,Rain,Heavy Rain,220,2013-10-16 21:04:00
5:25 PM,62.6,60.8,94,29.84,0.5,West,17.3,-,0.09,Rain,Heavy Rain,270,2013-10-16 21:25:00
5:51 PM,62.6,60.8,94,29.84,3.0,West,10.4,-,0.41,Rain,Light Rain,270,2013-10-16 21:51:00
6:51 PM,60.8,57.2,88,29.86,8.0,West,10.4,-,0.00,,Mostly Cloudy,270,2013-10-16 22:51:00
7:51 PM,60.8,55.4,82,29.87,8.0,WNW,8.1,-,N/A,,Overcast,290,2013-10-16 23:51:00
8:51 PM,55.4,50.0,82,29.90,10.0,WNW,9.2,-,N/A,,Mostly Cloudy,290,2013-10-17 00:51:00
9:51 PM,53.6,46.4,77,29.92,10.0,WNW,9.2,-,N/A,,Mostly Cloudy,300,2013-10-17 01:51:00
10:51 PM,51.8,44.6,76,29.93,10.0,WNW,8.1,-,N/A,,Overcast,290,2013-10-17 02:51:00
11:51 PM,50.0,44.6,82,29.94,10.0,WNW,8.1,-,N/A,,Scattered Clouds,290,2013-10-17 03:51:00